BEIDOU-3 M15 (C34)

Last updated on Jan. 18, 2020, 4:39 a.m. UTC

1 43647U 18078A   20016.49368521 -.00000069  00000-0  10000-3 0  9995
2 43647  55.1677  20.8793 0007444 328.2911 210.7078  1.86232740  8524
UTC
Height (km)
Latitude
Longitude
Inclination
Orbital Period
UTC large
Height (km)
Speed (km/s)
/
Latitude / Longitude
Inclination (degrees)
Orbital Period (minutes)
Azimuth
Elevation
Range (km)
Doppler Factor
iOS Compass Heading
iOS Angle

Next 30 passes for location: Hong Kong

Rise time Rise Azimuth (degrees) Set time Set Azimuth (degrees) Duration Max altitude (degrees)

No matching passes for this satellites